Tracking 18844 objects as of 21-Nov-2017
HD Live streaming from Space Station
objects crossing your sky now

FENGYUN 1C DEB

Track FENGYUN 1C DEB now!
10-day predictions


NORAD ID: 29827
Int'l Code: 1999-025DV
Perigee: 819.0 km
Apogee: 857.7 km
Inclination: 98.7 °
Period: 101.5 minutes
Semi major axis: 7209 km
RCS: 0.0148 m2 (small)
Launch date: May 10, 1999
Source: People's Republic of China (PRC)
Launch site: Taiyaun Space Center, China (TSC)

Note: This is SATELLITE DEBRIS
aabbcc
Your satellite tracking list
Your tracking list is empty




NASA's NSSDC Master Catalog

Two Line Element Set (TLE):
1 29827U 99025DV  17324.75628830 +.00000149 +00000-0 +93335-4 0  9990
2 29827 098.7202 356.5580 0026841 172.7107 251.4928 14.18255207561060
Source of the keplerian elements: AFSPC